Time,TemperatureF,DewpointF,PressureIn,WindDirection,WindDirectionDegrees,WindSpeedMPH,WindSpeedGustMPH,Humidity,HourlyPrecipIn,Conditions,Clouds,dailyrainin,SoftwareType,DateUTC
2013-08-07 00:01:00,70.0,68.0,30.07,SW,217,1.0,2.0,92,0.00,,,0.12,,2013-08-07 04:01:00,
2013-08-07 00:11:00,70.0,68.0,30.07,SW,217,1.0,2.0,92,0.00,,,0.12,,2013-08-07 04:11:00,
2013-08-07 00:21:00,70.0,68.0,30.07,SW,217,1.0,2.0,92,0.00,,,0.12,,2013-08-07 04:21:00,
2013-08-07 00:33:00,70.0,68.0,30.07,SW,217,1.0,2.0,92,0.00,,,0.12,,2013-08-07 04:33:00,
2013-08-07 00:43:00,71.0,69.0,30.07,SSW,200,1.0,3.0,92,0.00,,,0.12,,2013-08-07 04:43:00,
2013-08-07 00:52:00,71.0,68.0,30.07,SSW,208,0.0,3.0,91,0.00,,,0.12,,2013-08-07 04:52:00,
2013-08-07 01:02:00,71.0,68.0,30.07,SSW,208,0.0,1.0,91,0.00,,,0.12,,2013-08-07 05:02:00,
2013-08-07 01:11:00,71.0,68.0,30.07,SSW,208,0.0,1.0,91,0.00,,,0.12,,2013-08-07 05:11:00,
2013-08-07 01:22:00,71.0,69.0,30.07,SSW,208,0.0,1.0,92,0.00,,,0.12,,2013-08-07 05:22:00,
2013-08-07 01:32:00,71.0,69.0,30.07,SSW,208,0.0,0.0,94,0.00,,,0.12,,2013-08-07 05:32:00,
2013-08-07 01:43:00,71.0,69.0,30.07,SSW,208,0.0,0.0,94,0.00,,,0.12,,2013-08-07 05:43:00,
2013-08-07 01:52:00,70.0,68.0,30.06,SSW,208,0.0,0.0,93,0.00,,,0.12,,2013-08-07 05:52:00,
2013-08-07 02:02:00,70.0,68.0,30.06,SSW,208,0.0,0.0,94,0.00,,,0.12,,2013-08-07 06:02:00,
2013-08-07 02:11:00,70.0,68.0,30.06,SSW,208,0.0,0.0,94,0.00,,,0.12,,2013-08-07 06:11:00,
2013-08-07 02:22:00,70.0,68.0,30.06,SSW,208,0.0,0.0,94,0.00,,,0.12,,2013-08-07 06:22:00,
2013-08-07 02:32:00,70.0,68.0,30.07,SSW,208,0.0,0.0,95,0.00,,,0.12,,2013-08-07 06:32:00,
2013-08-07 02:43:00,70.0,68.0,30.07,SSW,208,0.0,0.0,95,0.00,,,0.12,,2013-08-07 06:43:00,
2013-08-07 02:52:00,70.0,68.0,30.07,SSW,208,0.0,0.0,95,0.00,,,0.12,,2013-08-07 06:52:00,
2013-08-07 03:01:00,70.0,69.0,30.07,SSW,208,0.0,0.0,96,0.00,,,0.12,,2013-08-07 07:01:00,
2013-08-07 03:12:00,70.0,69.0,30.07,SSW,208,0.0,0.0,96,0.00,,,0.12,,2013-08-07 07:12:00,
2013-08-07 03:22:00,70.0,69.0,30.07,SSW,208,0.0,1.0,96,0.00,,,0.12,,2013-08-07 07:22:00,
2013-08-07 03:43:00,70.0,68.0,30.07,SSE,162,1.0,2.0,95,0.00,,,0.12,,2013-08-07 07:43:00,
2013-08-07 03:53:00,70.0,68.0,30.07,SE,143,1.0,3.0,95,0.00,,,0.12,,2013-08-07 07:53:00,
2013-08-07 04:02:00,70.0,68.0,30.07,SE,143,1.0,3.0,95,0.00,,,0.12,,2013-08-07 08:02:00,
2013-08-07 04:11:00,71.0,69.0,30.07,SSE,148,2.0,3.0,93,0.00,,,0.12,,2013-08-07 08:11:00,
2013-08-07 04:22:00,71.0,69.0,30.07,SSE,153,1.0,2.0,93,0.00,,,0.12,,2013-08-07 08:22:00,
2013-08-07 04:44:00,71.0,69.0,30.07,SSE,156,2.0,4.0,92,0.00,,,0.12,,2013-08-07 08:44:00,
2013-08-07 04:53:00,71.0,69.0,30.07,SSE,158,2.0,4.0,92,0.00,,,0.12,,2013-08-07 08:53:00,
2013-08-07 05:02:00,71.0,69.0,30.07,South,169,2.0,4.0,92,0.00,,,0.12,,2013-08-07 09:02:00,
2013-08-07 05:12:00,71.0,69.0,30.07,South,169,2.0,4.0,92,0.00,,,0.12,,2013-08-07 09:12:00,
2013-08-07 05:22:00,71.0,69.0,30.08,SSW,200,2.0,4.0,92,0.00,,,0.12,,2013-08-07 09:22:00,
2013-08-07 05:43:00,71.0,69.0,30.08,SE,131,2.0,3.0,92,0.00,,,0.12,,2013-08-07 09:43:00,
2013-08-07 05:54:00,71.0,68.0,30.08,SSE,153,1.0,3.0,91,0.00,,,0.12,,2013-08-07 09:54:00,
2013-08-07 06:01:00,71.0,69.0,30.08,SE,142,1.0,3.0,92,0.00,,,0.12,,2013-08-07 10:01:00,
2013-08-07 06:11:00,71.0,69.0,30.08,SE,142,1.0,3.0,92,0.00,,,0.12,,2013-08-07 10:11:00,
2013-08-07 06:22:00,71.0,69.0,30.08,SE,134,2.0,3.0,92,0.00,,,0.10,,2013-08-07 10:22:00,
2013-08-07 06:32:00,71.0,69.0,30.09,SW,221,2.0,3.0,92,0.00,,,0.10,,2013-08-07 10:32:00,
2013-08-07 06:43:00,71.0,69.0,30.09,SW,221,2.0,3.0,92,0.00,,,0.10,,2013-08-07 10:43:00,
2013-08-07 06:52:00,71.0,69.0,30.09,SSE,158,1.0,3.0,92,0.00,,,0.10,,2013-08-07 10:52:00,
2013-08-07 07:01:00,71.0,69.0,30.09,South,172,1.0,3.0,92,0.00,,,0.10,,2013-08-07 11:01:00,
2013-08-07 07:11:00,71.0,69.0,30.09,South,172,1.0,3.0,92,0.00,,,0.10,,2013-08-07 11:11:00,
2013-08-07 07:22:00,71.0,69.0,30.09,SSE,155,2.0,3.0,92,0.00,,,0.01,,2013-08-07 11:22:00,
2013-08-07 07:32:00,71.0,69.0,30.09,SSE,155,2.0,3.0,92,0.00,,,0.01,,2013-08-07 11:32:00,
2013-08-07 07:43:00,71.0,68.0,30.09,South,184,1.0,3.0,91,0.00,,,0.01,,2013-08-07 11:43:00,
2013-08-07 07:53:00,71.0,68.0,30.10,SSE,148,1.0,3.0,91,0.00,,,0.01,,2013-08-07 11:53:00,
2013-08-07 08:02:00,72.0,69.0,30.10,SE,132,2.0,4.0,90,0.00,,,0.01,,2013-08-07 12:02:00,
2013-08-07 08:11:00,72.0,69.0,30.10,SE,132,2.0,4.0,90,0.00,,,0.01,,2013-08-07 12:11:00,
2013-08-07 08:22:00,72.0,69.0,30.10,SSE,159,1.0,2.0,90,0.00,,,0.00,,2013-08-07 12:22:00,
2013-08-07 08:33:00,72.0,69.0,30.10,SSE,159,1.0,2.0,90,0.00,,,0.00,,2013-08-07 12:33:00,
2013-08-07 08:43:00,72.0,69.0,30.10,SSE,149,2.0,4.0,90,0.00,,,0.00,,2013-08-07 12:43:00,
2013-08-07 08:52:00,72.0,69.0,30.10,SSE,156,2.0,5.0,89,0.00,,,0.00,,2013-08-07 12:52:00,
2013-08-07 09:02:00,73.0,70.0,30.11,South,182,2.0,4.0,89,0.00,,,0.00,,2013-08-07 13:02:00,
2013-08-07 09:12:00,73.0,70.0,30.11,South,182,2.0,4.0,89,0.00,,,0.00,,2013-08-07 13:12:00,
2013-08-07 09:22:00,73.0,70.0,30.11,SE,136,2.0,4.0,89,0.00,,,0.00,,2013-08-07 13:22:00,
2013-08-07 09:32:00,73.0,70.0,30.11,SSE,159,2.0,4.0,89,0.00,,,0.00,,2013-08-07 13:32:00,
2013-08-07 09:44:00,73.0,70.0,30.11,SSE,159,2.0,4.0,89,0.00,,,0.00,,2013-08-07 13:44:00,
2013-08-07 09:53:00,74.0,70.0,30.11,South,173,4.0,6.0,88,0.00,,,0.00,,2013-08-07 13:53:00,
2013-08-07 10:02:00,75.0,71.0,30.10,SSE,163,3.0,7.0,88,0.00,,,0.00,,2013-08-07 14:02:00,
2013-08-07 10:12:00,75.0,71.0,30.10,SSE,163,3.0,7.0,88,0.00,,,0.00,,2013-08-07 14:12:00,
2013-08-07 10:22:00,76.0,72.0,30.11,SSE,153,3.0,8.0,86,0.00,,,0.00,,2013-08-07 14:22:00,
2013-08-07 10:33:00,77.0,72.0,30.11,SE,135,2.0,5.0,86,0.00,,,0.00,,2013-08-07 14:33:00,
2013-08-07 10:43:00,77.0,72.0,30.11,SE,135,2.0,5.0,86,0.00,,,0.00,,2013-08-07 14:43:00,
2013-08-07 11:02:00,80.0,72.0,30.11,SSE,162,3.0,7.0,78,0.00,,,0.00,,2013-08-07 15:02:00,
2013-08-07 11:13:00,80.0,72.0,30.11,SSE,162,3.0,7.0,78,0.00,,,0.00,,2013-08-07 15:13:00,
2013-08-07 11:22:00,81.0,72.0,30.11,SSE,162,4.0,7.0,75,0.00,,,0.00,,2013-08-07 15:22:00,
2013-08-07 11:33:00,81.0,72.0,30.11,SSE,162,4.0,7.0,75,0.00,,,0.00,,2013-08-07 15:33:00,
2013-08-07 11:43:00,82.0,72.0,30.11,South,188,5.0,8.0,71,0.00,,,0.00,,2013-08-07 15:43:00,
2013-08-07 11:53:00,83.0,73.0,30.11,East,86,3.0,8.0,71,0.00,,,0.00,,2013-08-07 15:53:00,
2013-08-07 12:02:00,84.0,72.0,30.11,SE,136,6.0,9.0,68,0.00,,,0.00,,2013-08-07 16:02:00,
2013-08-07 12:11:00,84.0,72.0,30.11,SE,136,6.0,9.0,68,0.00,,,0.00,,2013-08-07 16:11:00,
2013-08-07 12:43:00,84.0,70.0,30.10,SSE,148,5.0,8.0,64,0.00,,,0.00,,2013-08-07 16:43:00,
2013-08-07 12:53:00,84.0,70.0,30.10,SSE,156,4.0,9.0,62,0.00,,,0.00,,2013-08-07 16:53:00,
2013-08-07 13:02:00,84.0,70.0,30.11,SSW,195,4.0,8.0,64,0.00,,,0.00,,2013-08-07 17:02:00,
2013-08-07 13:11:00,84.0,70.0,30.11,SSW,195,4.0,8.0,64,0.00,,,0.00,,2013-08-07 17:11:00,
2013-08-07 13:23:00,85.0,71.0,30.11,South,190,6.0,9.0,63,0.00,,,0.00,,2013-08-07 17:23:00,
2013-08-07 13:33:00,85.0,72.0,30.10,SSE,156,2.0,7.0,65,0.00,,,0.00,,2013-08-07 17:33:00,
2013-08-07 13:43:00,85.0,72.0,30.10,SSE,156,2.0,7.0,65,0.00,,,0.00,,2013-08-07 17:43:00,
2013-08-07 13:52:00,86.0,70.0,30.09,SSW,207,7.0,12.0,59,0.00,,,0.00,,2013-08-07 17:52:00,
2013-08-07 14:02:00,86.0,71.0,30.09,South,191,4.0,10.0,61,0.00,,,0.00,,2013-08-07 18:02:00,
2013-08-07 14:12:00,86.0,71.0,30.09,South,191,4.0,10.0,61,0.00,,,0.00,,2013-08-07 18:12:00,
2013-08-07 14:22:00,86.0,69.0,30.09,SSE,157,6.0,13.0,58,0.00,,,0.00,,2013-08-07 18:22:00,
2013-08-07 14:32:00,86.0,69.0,30.09,SSE,157,6.0,13.0,58,0.00,,,0.00,,2013-08-07 18:32:00,
2013-08-07 14:43:00,86.0,70.0,30.08,SSW,195,4.0,9.0,59,0.00,,,0.00,,2013-08-07 18:43:00,
2013-08-07 14:52:00,86.0,70.0,30.08,SE,126,4.0,8.0,59,0.00,,,0.00,,2013-08-07 18:52:00,
2013-08-07 15:01:00,85.0,70.0,30.07,SSE,150,4.0,7.0,60,0.00,,,0.00,,2013-08-07 19:01:00,
2013-08-07 15:11:00,85.0,70.0,30.07,SSE,150,4.0,7.0,60,0.00,,,0.00,,2013-08-07 19:11:00,
2013-08-07 15:22:00,86.0,71.0,30.06,SSE,156,3.0,5.0,62,0.00,,,0.00,,2013-08-07 19:22:00,
2013-08-07 15:32:00,86.0,71.0,30.06,SSE,156,3.0,5.0,62,0.00,,,0.00,,2013-08-07 19:32:00,
2013-08-07 15:44:00,86.0,70.0,30.06,SSW,205,5.0,10.0,59,0.00,,,0.00,,2013-08-07 19:44:00,
2013-08-07 15:53:00,86.0,72.0,30.06,SE,142,4.0,8.0,63,0.00,,,0.00,,2013-08-07 19:53:00,
2013-08-07 16:02:00,86.0,71.0,30.06,SE,142,4.0,8.0,61,0.00,,,0.00,,2013-08-07 20:02:00,
2013-08-07 16:11:00,86.0,71.0,30.06,SE,142,4.0,8.0,61,0.00,,,0.00,,2013-08-07 20:11:00,
2013-08-07 16:22:00,85.0,70.0,30.05,SSE,162,4.0,8.0,61,0.00,,,0.00,,2013-08-07 20:22:00,
2013-08-07 16:43:00,85.0,70.0,30.05,SSE,163,4.0,8.0,61,0.00,,,0.00,,2013-08-07 20:43:00,
2013-08-07 16:52:00,85.0,70.0,30.04,SSW,197,4.0,8.0,61,0.00,,,0.00,,2013-08-07 20:52:00,
2013-08-07 17:01:00,85.0,70.0,30.05,South,169,3.0,6.0,61,0.00,,,0.00,,2013-08-07 21:01:00,
2013-08-07 17:11:00,85.0,70.0,30.05,South,169,3.0,6.0,61,0.00,,,0.00,,2013-08-07 21:11:00,
2013-08-07 17:22:00,86.0,71.0,30.04,SSW,205,4.0,7.0,62,0.00,,,0.00,,2013-08-07 21:22:00,
2013-08-07 17:32:00,86.0,74.0,30.04,South,179,2.0,8.0,67,0.00,,,0.00,,2013-08-07 21:32:00,
2013-08-07 17:43:00,86.0,74.0,30.04,South,179,2.0,8.0,67,0.00,,,0.00,,2013-08-07 21:43:00,
2013-08-07 17:52:00,87.0,72.0,30.04,South,177,4.0,10.0,62,0.00,,,0.00,,2013-08-07 21:52:00,
2013-08-07 18:01:00,87.0,72.0,30.04,South,177,4.0,10.0,62,0.00,,,0.00,,2013-08-07 22:01:00,
2013-08-07 18:12:00,88.0,72.0,30.04,SSE,150,3.0,7.0,60,0.00,,,0.00,,2013-08-07 22:12:00,
2013-08-07 18:32:00,87.0,71.0,30.04,SSW,202,4.0,8.0,60,0.00,,,0.00,,2013-08-07 22:32:00,
2013-08-07 18:43:00,87.0,71.0,30.03,South,188,3.0,6.0,60,0.00,,,0.00,,2013-08-07 22:43:00,
2013-08-07 18:52:00,85.0,70.0,30.04,SSE,162,3.0,5.0,61,0.00,,,0.00,,2013-08-07 22:52:00,
2013-08-07 19:01:00,85.0,71.0,30.04,SE,129,1.0,4.0,63,0.00,,,0.00,,2013-08-07 23:01:00,
2013-08-07 19:11:00,85.0,71.0,30.04,SE,129,1.0,4.0,63,0.00,,,0.00,,2013-08-07 23:11:00,
2013-08-07 19:22:00,84.0,71.0,30.04,SSE,156,2.0,4.0,65,0.00,,,0.00,,2013-08-07 23:22:00,
2013-08-07 19:32:00,83.0,71.0,30.03,SSE,167,1.0,2.0,68,0.00,,,0.00,,2013-08-07 23:32:00,
2013-08-07 19:43:00,83.0,71.0,30.03,SSE,167,1.0,2.0,68,0.00,,,0.00,,2013-08-07 23:43:00,
2013-08-07 19:52:00,81.0,72.0,30.04,SSE,167,0.0,1.0,73,0.00,,,0.00,,2013-08-07 23:52:00,
2013-08-07 20:01:00,80.0,73.0,30.04,SSE,167,0.0,0.0,79,0.00,,,0.00,,2013-08-08 00:01:00,
2013-08-07 20:11:00,80.0,73.0,30.04,SSE,167,0.0,0.0,79,0.00,,,0.00,,2013-08-08 00:11:00,
2013-08-07 20:22:00,78.0,71.0,30.04,SSE,167,0.0,0.0,80,0.00,,,0.00,,2013-08-08 00:22:00,
2013-08-07 20:32:00,78.0,71.0,30.04,SSE,167,0.0,0.0,80,0.00,,,0.00,,2013-08-08 00:32:00,
2013-08-07 20:43:00,77.0,72.0,30.04,SSE,167,0.0,0.0,86,0.00,,,0.00,,2013-08-08 00:43:00,
2013-08-07 20:53:00,77.0,72.0,30.04,SSE,166,0.0,1.0,84,0.00,,,0.00,,2013-08-08 00:53:00,
2013-08-07 21:02:00,77.0,72.0,30.04,SSE,166,0.0,1.0,84,0.00,,,0.00,,2013-08-08 01:02:00,
2013-08-07 21:11:00,78.0,72.0,30.05,SSW,193,1.0,1.0,83,0.00,,,0.00,,2013-08-08 01:11:00,
2013-08-07 21:22:00,78.0,72.0,30.05,SSW,193,1.0,1.0,83,0.00,,,0.00,,2013-08-08 01:22:00,
2013-08-07 21:32:00,78.0,73.0,30.05,SSE,166,1.0,1.0,84,0.00,,,0.00,,2013-08-08 01:32:00,
2013-08-07 21:43:00,78.0,72.0,30.05,SSE,153,0.0,2.0,82,0.00,,,0.00,,2013-08-08 01:43:00,
2013-08-07 21:52:00,78.0,72.0,30.05,SSE,153,0.0,2.0,82,0.00,,,0.00,,2013-08-08 01:52:00,
2013-08-07 22:02:00,78.0,72.0,30.06,SE,133,1.0,3.0,81,0.00,,,0.00,,2013-08-08 02:02:00,
2013-08-07 22:11:00,78.0,72.0,30.06,SE,133,1.0,3.0,81,0.00,,,0.00,,2013-08-08 02:11:00,
2013-08-07 22:22:00,78.0,71.0,30.06,ESE,114,3.0,5.0,79,0.00,,,0.00,,2013-08-08 02:22:00,
2013-08-07 22:32:00,78.0,71.0,30.06,South,179,3.0,6.0,79,0.00,,,0.00,,2013-08-08 02:32:00,
2013-08-07 22:43:00,78.0,71.0,30.06,South,179,3.0,6.0,79,0.00,,,0.00,,2013-08-08 02:43:00,
2013-08-07 22:52:00,78.0,71.0,30.07,SSE,165,4.0,6.0,80,0.00,,,0.00,,2013-08-08 02:52:00,
2013-08-07 23:02:00,77.0,70.0,30.07,South,187,2.0,7.0,80,0.00,,,0.00,,2013-08-08 03:02:00,
2013-08-07 23:12:00,77.0,70.0,30.07,South,187,2.0,7.0,80,0.00,,,0.00,,2013-08-08 03:12:00,
2013-08-07 23:22:00,77.0,71.0,30.07,SE,145,3.0,6.0,81,0.00,,,0.00,,2013-08-08 03:22:00,
2013-08-07 23:32:00,77.0,71.0,30.07,SE,145,3.0,6.0,81,0.00,,,0.00,,2013-08-08 03:32:00,
2013-08-07 23:43:00,76.0,70.0,30.07,SSE,160,2.0,5.0,82,0.00,,,0.00,,2013-08-08 03:43:00,
2013-08-07 23:52:00,76.0,70.0,30.07,SSE,160,2.0,5.0,82,0.00,,,0.00,,2013-08-08 03:52:00,